Location: Orange Harbor Mobile Home Park
(26.6923°N, 81.7937°W)
Time: 07:16:18
(UTC+00:00)

Okean-O - Pass Details

Date: 19 September 2020
Orbit: 638 x 641 km, 98.2° (Epoch: 29 October)

Event Time Altitude Azimuth Distance (km) Brightness Sun altitude
Rises 00:30:32 0° 182° (S) 2,928 6.0 -14.8°
Reaches altitude 10° 00:32:49 10° 189° (S) 2,023 5.2 -15.3°
Maximum altitude 00:36:59 42° 260° (W) 919 3.9 -16.3°
Drops below altitude 10° 00:41:11 10° 331° (NNW) 2,033 5.7 -17.2°
Sets 00:43:30 0° 339° (NNW) 2,945 6.5 -17.7°
